Regional Weather Roundup
Issued by NWS

Home | Current Version | Previous Version | Text Only | Print | Product List | Glossary On
Versions: 1 2 3 4 5 6 7 8 9 10 11 12 13 14 15 16 17 18 19 20 21 22 23 24 25 26 27 28 29 30 31 32 33 34 35 36 37 38 39 40 41 42 43 44 45 46 47 48 49 50
000
ASUS43 KLMK 270802
RWRKY
KENTUCKY REGIONAL WEATHER ROUNDUP
NATIONAL WEATHER SERVICE LOUISVILLE KY
400 AM EDT MON MAR 27 2017

NOTE "FAIR" INDICATES FEW OR NO CLOUDS BELOW 12,000 FEET
WITH NO SIGNIFICANT WEATHER AND/OR OBSTRUCTIONS TO VISIBILITY.

KYZ001>023-026-027-061>063-070>075-270900-
WESTERN AND SOUTH CENTRAL KENTUCKY

CITY           SKY/WX    TMP DP  RH WIND       PRES   REMARKS
PADUCAH        PTCLDY    50  48  93 E3        29.91F
HENDERSON      CLOUDY    48  43  81 CALM      29.94F
OWENSBORO      CLOUDY    50  47  89 CALM      29.96F
HOPKINSVILLE   CLOUDY    50  50  97 E3        29.94F
BOWLING GREEN  CLOUDY    52  49  89 CALM      29.96F FOG
GLASGOW        NOT AVBL
$$

KYZ024-025-028>034-038-045-046-053-270900-
NORTH CENTRAL KENTUCKY

CITY           SKY/WX    TMP DP  RH WIND       PRES   REMARKS
LOUISVILLE/SDF PTCLDY    53  48  83 SE3       29.96F
LOUISVILLE/LOU PTCLDY    53  48  83 CALM      29.97F
FORT KNOX      PTCLDY    50  49  98 CALM      29.95F
$$

KYZ035>037-039>044-047>052-055>060-089>105-270900-
NORTHEAST KENTUCKY

CITY           SKY/WX    TMP DP  RH WIND       PRES   REMARKS
LEXINGTON      MOCLDY    56  52  86 CALM      29.99S
COVINGTON      PTCLDY    49  48  97 S3        29.96S
FRANKFORT      MOCLDY    53  49  86 CALM      29.97F
$$

KYZ054-064>069-076>088-106>120-270900-
SOUTHEAST KENTUCKY

CITY           SKY/WX    TMP DP  RH WIND       PRES   REMARKS
JACKSON        CLEAR     59  54  83 W5        30.00S
LONDON         CLEAR     53  50  89 CALM      30.00F
SOMERSET       NOT AVBL
MIDDLESBORO    CLOUDY    49  49 100 CALM      30.03S
MONTICELLO     SUNNY     49  47  93 N12       30.01S
$$





USA.gov is the U.S. government's official web portal to all federal, state and local government web resources and services.